Regional Weather Roundup
Issued by NWS

Home | Current Version | Previous Version | Graphics & Text | Print | Product List | Glossary On
Versions: 1 2 3 4 5 6 7 8 9 10 11 12 13 14 15 16 17 18 19 20 21 22 23 24 25 26 27 28 29 30 31 32 33 34 35 36 37 38 39 40 41 42 43 44 45 46 47 48 49 50
000
ASUS43 KDTX 240301
RWRMI
MICHIGAN HOURLY REGIONAL WEATHER ROUNDUP
NATIONAL WEATHER SERVICE DETROIT/PONTIAC MI
1000 PM EST THU NOV 23 2017

NOTE: "FAIR" INDICATES FEW OR NO CLOUDS BELOW 12,000 FEET WITH NO
SIGNIFICANT WEATHER AND/OR OBSTRUCTION TO VISIBILITY.

MIZ047>049-052>055-059>063-066>070-074>076-081>083-240400-
SOUTHEAST LOWER MICHIGAN

CITY           SKY/WX    TMP DP  RH WIND       PRES   REMARKS
ADRIAN         PTCLDY    31  25  78 CALM      29.99S
ALMA           CLEAR     34  29  82 S5        29.91F WCI  30
ANN ARBOR      CLOUDY    32  27  81 CALM      29.97F
BAD AXE        CLEAR     31  22  71 SW6       29.91F WCI  25
CARO           CLEAR     31  22  68 SW3       29.91F
DETROIT CITY   CLOUDY    38  25  59 SW9       29.98F WCI  31
DETROIT        CLOUDY    35  26  69 S5        30.00S WCI  31
FLINT          MOCLDY    35  22  58 S7        29.94F WCI  29
GROSSE ILE     CLOUDY    37  27  67 SW6       29.99S WCI  32
HILLSDALE      CLEAR     32  21  64 S5        29.95S WCI  27
HOWELL         CLOUDY    35  25  65 S5        29.95S WCI  31

CITY           SKY/WX    TMP DP  RH WIND       PRES   REMARKS
JACKSON        CLOUDY    33  23  66 S5        29.95F WCI  29
LAMBERTVILLE   MOCLDY    36  27  69 S3        30.00S
LANSING        CLEAR     36  23  59 S8        29.94F WCI  30
LAPEER         FAIR      34  24  67 SW6       29.94F WCI  29
MASON          CLOUDY    37  24  58 S3        29.94F
MONROE         CLOUDY    32  26  79 CALM      29.99S
MT. CLEMENS    CLOUDY    38  26  61 SW9       29.95F WCI  32
PONTIAC        CLOUDY    36  24  62 SW8       29.94F WCI  30
PORT HOPE        N/A     34  22  61 SW5       29.89F WCI  30
PORT HURON     CLEAR     36  23  60 SW5       29.96F WCI  32
TRI CITIES     CLEAR     36  25  64 S7        29.92F WCI  30
MIDLAND        FAIR      31  27  84 CALM      29.91R
TROY           CLOUDY    39  25  57 SW7       29.98F WCI  34
SAGINAW HB     CLEAR     34  25  69 S6        29.92S WCI  29
$$
MIZ043>046-050>051-056>058-064>065-071>073-077>080-240400-
SOUTHWEST LOWER MICHIGAN

CITY           SKY/WX    TMP DP  RH WIND       PRES   REMARKS
BATTLE CREEK   CLEAR     33  24  69 S8        29.94S WCI  26
BENTON HARBOR  CLEAR     34  24  67 S3        29.93S
BIG RAPIDS     CLEAR     27  24  89 CALM      29.87F
COLDWATER      CLEAR     34  22  61 S3        29.95S
FREMONT        FAIR      30  28  93 S3        29.89F
HOLLAND        CLEAR     33  26  75 S6        29.91F WCI  28
GRAND RAPIDS   PTCLDY    32  26  78 S8        29.90F WCI  25
IONIA          FAIR      35  24  65 S8        29.90F WCI  28
KALAMAZOO      CLEAR     34  22  61 S6        29.94S WCI  29
LUDINGTON      CLEAR     29  25  83 CALM      29.86F
MARSHALL       CLOUDY    34  23  62 S3        29.95R
MOUNT PLEASANT CLEAR     32  27  84 CALM      29.89F
MUSKEGON       PTCLDY    29  24  82 SE6       29.90F WCI  23
SOUTH HAVEN    CLEAR     34  25  69 S5        29.92F WCI  30
$$
MIZ016>042-240400-
NORTHERN LOWER MICHIGAN

CITY           SKY/WX    TMP DP  RH WIND       PRES   REMARKS
ALPENA         PTCLDY    31  26  82 S5        29.87F WCI  26
BEAVER ISLAND  CLEAR     31  28  90 SW6       29.81F WCI  25
BELLAIRE       CLEAR     29  28  94 CALM      29.86F
CADILLAC       CLOUDY    27  24  88 S3        29.84F
CHARLEVOIX     CLEAR     32  28  82 S5        29.86F WCI  28
FRANKFORT      CLOUDY    32  26  77 CALM      29.85F
GAYLORD        CLEAR     28  22  78 SW7       29.83F WCI  21
GRAYLING       CLEAR     24  22  91 CALM      29.86F
HARBOR SPRINGS CLOUDY    33  27  78 S6        29.83F WCI  28
HOUGHTON LAKE  CLEAR     30  24  78 S6        29.86F WCI  24
MANISTEE       CLOUDY    28  25  88 CALM      29.86
OSCODA         CLEAR     29  23  76 CALM      29.89S
PELLSTON       CLOUDY    34  27  75 S6        29.83F WCI  29
ROGERS CITY    CLEAR     33  26  76 SW7       29.85F WCI  27
TRAVERSE CITY  CLEAR     32  25  75 S3        29.85F
$$
MIZ007>008-015-240400-
EASTERN UPPER MICHIGAN

CITY           SKY/WX    TMP DP  RH WIND       PRES   REMARKS
KINROSS        MOCLDY    29  22  75 SE5       29.81F WCI  24
MACKINAC ISLAN MOCLDY    36  29  75 S7        29.80F WCI  31
NEWBERRY       FLURRIES  30  25  80 CALM      29.77F
S. S. MARIE    CLOUDY    34  24  67 SW6       29.80S WCI  29
MUNISING         N/A     33  25  72 S10       29.73F WCI  25
$$
MIZ004>006-011>014-085-240400-
CENTRAL UPPER MICHIGAN

CITY           SKY/WX    TMP DP  RH WIND       PRES   REMARKS
MANISTIQUE     CLOUDY    37  25  63 S8        29.77F WCI  30
ESCANABA       CLOUDY    38  26  62 SW12G18   29.77F WCI  30
MENOMINEE      CLOUDY    36  27  69 SW9       29.79F WCI  29
SAWYER-GWINN   CLOUDY    32  23  69 S12       29.72F WCI  23
$$
MIZ001>003-009>011-084-240400-
WESTERN UPPER MICHIGAN

CITY           SKY/WX    TMP DP  RH WIND       PRES   REMARKS
IRON MOUNTAIN  CLOUDY    35  21  56 S7        29.71F WCI  29
HOUGHTON       CLOUDY    33  26  75 SE6       29.63F WCI  28
COPPER HARBOR    N/A     36  28  73 SW9       29.66F WCI  29
IRONWOOD       LGT RAIN  37  25  61 S9        29.60F WCI  30
$$

ABBREVIATIONS USED IN REMARKS
   TC - TEMPERATURE IN CELSIUS
  WCI - WIND CHILL INDEX
   HX - HEAT INDEX
  VSB - VISIBILITY




USA.gov is the U.S. government's official web portal to all federal, state and local government web resources and services.